[[{"header":{"parameterUnit":"m.s-1","parameterCategory":1,"la1":30.2991,"la2":30.254,"lo1":-89.0895,"lo2":-89.0444,"dy":0.0017,"dx":0.0017,"nx":28,"ny":28,"refTime":"2025-03-31T09:00:00:Z","depth":0,"parameterNumber":2,"parameterNumberName":"U-component_of_WINDS"},"data":[0,0,0,0,0,0,0,0,0,0,0,0,0,0,0,0,0,0,0,0,0,0,0,0,0,0,0,0,0,0,0,0,0,0,0,0,0,0,0,0,0,0,0,0,0,0,0,0,0,0,0,0,0,0,0,0,0,0,-0.9174,-0.9174,0,-0.9106,-0.9105,-0.9104,-0.9052,-0.9051,-0.9051,-0.905,-0.898,-0.8979,-0.8978,0,0,0,0,0,0,0,0,0,0,0,0,0,-0.9261,-0.926,-0.9175,-0.9174,-0.9173,-0.9106,-0.9105,-0.9104,-0.9052,-0.9051,-0.9051,-0.905,-0.8981,-0.8979,-0.8978,0,0,0,0,0,0,0,0,0,0,0,0,0,-0.9211,-0.9259,-0.9175,-0.9139,-0.9135,-0.9106,-0.9105,-0.9104,-0.9052,-0.9051,-0.905,-0.905,-0.8981,-0.8979,-0.8977,-0.8979,0,0,-0.8971,-0.897,0,0,0,0,0,0,0,0,-0.9214,-0.9208,-0.9145,-0.9141,-0.9137,-0.9087,-0.911,-0.9062,-0.9052,-0.9083,-0.905,-0.9049,-0.9016,-0.9011,-0.9,-0.8976,-0.8973,-0.8971,-0.8969,-0.8968,-0.8968,0,0,0,0,0,0,0,-0.9217,-0.921,-0.9147,-0.9144,-0.9139,-0.9126,-0.9118,-0.91,-0.9055,-0.9081,-0.9077,-0.9069,-0.9014,-0.9002,-0.8998,-0.8972,-0.8971,-0.8969,-0.8968,-0.8967,-0.8944,-0.8945,0,0,0,0,0,0,-0.9226,-0.9214,-0.9149,-0.9145,-0.9174,-0.9125,-0.9116,-0.9103,-0.9055,-0.9047,-0.907,-0.9067,-0.9006,-0.9001,-0.8995,-0.8993,-0.8968,-0.8966,-0.8965,-0.8944,-0.8945,-0.8945,0,0,0,0,0,0,-0.9228,-0.9221,-0.9152,-0.9178,-0.9169,-0.9124,-0.911,-0.9102,-0.9091,-0.9047,-0.9038,-0.9066,-0.9005,-0.8998,-0.8983,-0.899,-0.8966,-0.8964,-0.8943,-0.8944,-0.8945,-0.899,0,0,0,0,0,0,-0.9231,-0.9222,-0.9222,-0.9179,-0.9167,-0.9141,-0.9111,-0.9102,-0.9087,-0.9083,-0.9041,-0.9034,-0.9004,-0.8987,-0.8981,-0.8987,-0.8962,-0.8942,-0.8943,-0.8945,-0.8988,-0.8993,-0.8997,0,0,0,0,0,-0.9234,-0.9238,-0.9223,-0.9215,-0.9167,-0.9142,-0.9135,-0.9101,-0.9088,-0.9088,-0.9059,-0.9035,-0.8991,-0.8986,-0.8979,-0.8984,-0.8942,-0.8943,-0.8945,-0.8986,-0.8992,-0.8997,0,0,0,0,0,0,-0.9284,-0.9232,-0.9214,-0.9204,-0.9178,-0.9133,-0.9132,-0.9109,-0.9086,-0.9083,-0.9042,-0.9033,-0.9022,-0.9002,-0.8997,-0.8983,-0.8963,-0.8963,-0.8997,-0.9002,-0.9006,-0.9011,-0.896,0,0,0,0,0,-0.9294,-0.9278,-0.9233,-0.9228,-0.9216,-0.9176,-0.9164,-0.914,-0.9112,-0.9101,-0.9071,-0.9045,-0.9024,-0.9012,-0.8991,-0.8985,-0.8975,-0.8985,-0.899,-0.8994,-0.8994,-0.8989,-0.8993,-0.895,-0.895,-0.895,0,0,-0.9314,-0.9283,-0.9276,-0.9237,-0.9214,-0.9199,-0.9167,-0.9152,-0.914,-0.9098,-0.9082,-0.906,-0.9027,-0.9016,-0.901,-0.8999,-0.9004,-0.8996,-0.8999,-0.8997,-0.8991,-0.8995,-0.8999,-0.8951,-0.8951,-0.8951,0,0,-0.9342,-0.9317,-0.931,-0.9288,-0.9253,-0.9227,-0.9225,-0.9184,-0.9167,-0.915,-0.9118,-0.9104,-0.907,-0.9048,-0.9033,-0.9052,-0.9029,-0.9047,-0.907,-0.9065,-0.9068,-0.9071,-0.9078,-0.9081,-0.9048,-0.9048,-0.9048,0,-0.9371,-0.9346,-0.931,-0.9296,-0.928,-0.9241,-0.9234,-0.9214,-0.9175,-0.9165,-0.9153,-0.9109,-0.9085,-0.9068,-0.9073,-0.9062,-0.9058,-0.9051,-0.9071,-0.9073,-0.9075,-0.9081,-0.9084,-0.905,-0.905,-0.905,-0.9049,0,-0.9383,-0.9367,-0.9365,-0.9328,-0.9312,-0.9302,-0.9264,-0.9252,-0.9229,-0.9204,-0.9187,-0.9156,-0.9128,-0.9123,-0.9101,-0.9103,-0.9097,-0.9079,-0.9057,-0.9082,-0.9087,-0.9089,-0.9053,-0.9053,-0.9052,-0.9051,0,0,-0.9441,-0.9383,-0.9383,-0.9366,-0.9325,-0.9311,-0.9299,-0.9271,-0.9262,-0.9236,-0.9225,-0.9197,-0.918,-0.9162,-0.9137,-0.9133,-0.915,-0.9115,-0.9114,-0.9122,-0.915,-0.9164,-0.9167,-0.9135,-0.9135,-0.9135,-0.9153,0,-0.9462,-0.9438,-0.9405,-0.9392,-0.9376,-0.9339,-0.9328,-0.9302,-0.9278,-0.9261,-0.9235,-0.9216,-0.9194,-0.9183,-0.9178,-0.915,-0.9155,-0.9148,-0.9124,-0.9123,-0.9132,-0.917,-0.9184,-0.9202,-0.9154,-0.9155,-0.9155,0,-0.9484,-0.946,-0.9446,-0.9405,-0.9397,-0.9388,-0.936,-0.9344,-0.9314,-0.9297,-0.9277,-0.925,-0.9235,-0.9217,-0.9196,-0.9192,-0.918,-0.9164,-0.9164,-0.916,-0.914,-0.9166,-0.9207,-0.921,-0.9158,-0.9157,-0.9157,0,-0.9527,-0.9491,-0.9477,-0.9464,-0.9416,-0.9411,-0.9391,-0.936,-0.9345,-0.9321,-0.9311,-0.9285,-0.9271,-0.9252,-0.9218,-0.9208,-0.9201,-0.918,-0.9186,-0.9187,-0.9186,-0.9186,-0.9225,-0.9179,-0.9179,-0.9179,-0.9179,0,-0.9555,-0.9547,-0.9496,-0.9488,-0.9478,-0.944,-0.9432,-0.9408,-0.9381,-0.9367,-0.9333,-0.9321,-0.9279,-0.9262,-0.9236,-0.9222,-0.9216,-0.9201,-0.9195,-0.9204,-0.9206,-0.9195,-0.9193,-0.918,-0.918,-0.918,-0.9179,0,-0.9601,-0.9566,-0.9549,-0.9506,-0.9495,-0.9489,-0.9452,-0.9443,-0.9417,-0.94,-0.9394,-0.9353,-0.9331,-0.9296,-0.9265,-0.9247,-0.9238,-0.9227,-0.9248,-0.9244,-0.9252,-0.9251,-0.9285,-0.9287,-0.9241,-0.9241,-0.9242,0,-0.962,-0.9614,-0.9569,-0.9558,-0.9539,-0.9521,-0.9505,-0.9468,-0.9453,-0.9418,-0.9412,-0.9388,-0.9366,-0.9333,-0.93,-0.9276,-0.9263,-0.9277,-0.9259,-0.9269,-0.9263,-0.9263,-0.9262,-0.9281,-0.9281,-0.9282,-0.9282,0,-0.9659,-0.9642,-0.9621,-0.9594,-0.9577,-0.9554,-0.9529,-0.9522,-0.9479,-0.9464,-0.9441,-0.9425,-0.9392,-0.9367,-0.9338,-0.9317,-0.9293,-0.9288,-0.9288,-0.9298,-0.931,-0.9303,-0.9258,-0.9287,-0.9287,-0.9287,-0.9286,-0.9286,-0.9692,-0.9684,-0.9651,-0.9629,-0.9606,-0.9584,-0.9573,-0.9545,-0.9525,-0.9495,-0.9474,-0.9453,-0.9422,-0.938,-0.936,-0.9343,-0.9332,-0.9332,-0.9332,-0.9333,-0.9336,-0.9313,-0.9337,-0.9337,-0.9337,-0.9337,-0.9337,0,-0.9728,-0.9705,-0.9685,-0.9651,-0.9634,-0.9612,-0.9583,-0.957,-0.9551,-0.9525,-0.9504,-0.9477,-0.9454,-0.9419,-0.9393,-0.9385,-0.9373,-0.938,-0.938,-0.9375,-0.9348,-0.935,-0.939,-0.939,-0.939,-0.939,-0.939,-0.939,-0.9744,-0.9729,-0.9709,-0.9682,-0.9659,-0.9637,-0.9623,-0.9602,-0.958,-0.9552,-0.9532,-0.951,-0.948,-0.9451,-0.9428,-0.9419,-0.941,-0.942,-0.9407,-0.9382,-0.9377,-0.9373,-0.9374,-0.9419,-0.9419,-0.9436,-0.9436,-0.9437]},{"header":{"parameterUnit":"m.s-1","parameterCategory":1,"la1":30.2991,"la2":30.254,"lo1":-89.0895,"lo2":-89.0444,"dy":0.0017,"dx":0.0017,"nx":28,"ny":28,"refTime":"2025-03-31T09:00:00:Z","depth":0,"parameterNumber":3,"parameterNumberName":"V-component_of_WINDS"},"data":[0,0,0,0,0,0,0,0,0,0,0,0,0,0,0,0,0,0,0,0,0,0,0,0,0,0,0,0,0,0,0,0,0,0,0,0,0,0,0,0,0,0,0,0,0,0,0,0,0,0,0,0,0,0,0,0,0,0,-0.5359,-0.5359,0,-0.5405,-0.5405,-0.5406,-0.5404,-0.5403,-0.5403,-0.5402,-0.5451,-0.5453,-0.5455,0,0,0,0,0,0,0,0,0,0,0,0,0,-0.5269,-0.5271,-0.5359,-0.5359,-0.536,-0.5405,-0.5405,-0.5406,-0.5404,-0.5403,-0.5403,-0.5402,-0.545,-0.5452,-0.5455,0,0,0,0,0,0,0,0,0,0,0,0,0,-0.5311,-0.5271,-0.5358,-0.5364,-0.5365,-0.5405,-0.5405,-0.5406,-0.5404,-0.5403,-0.5402,-0.5401,-0.5449,-0.5452,-0.5455,-0.5492,0,0,-0.5464,-0.5465,0,0,0,0,0,0,0,0,-0.5309,-0.5314,-0.5363,-0.5364,-0.5365,-0.5398,-0.5392,-0.5435,-0.5405,-0.5389,-0.5402,-0.5401,-0.5434,-0.5438,-0.5449,-0.5495,-0.5497,-0.5464,-0.5466,-0.5467,-0.5468,0,0,0,0,0,0,0,-0.5306,-0.5312,-0.5377,-0.5363,-0.5365,-0.5365,-0.5369,-0.54,-0.5417,-0.5391,-0.5391,-0.5396,-0.5434,-0.5446,-0.545,-0.5497,-0.5464,-0.5466,-0.5468,-0.5469,-0.5575,-0.5576,0,0,0,0,0,0,-0.5301,-0.531,-0.5375,-0.5378,-0.5334,-0.5367,-0.5372,-0.5388,-0.5416,-0.542,-0.5397,-0.5396,-0.5442,-0.5447,-0.5452,-0.5497,-0.5467,-0.547,-0.5471,-0.5574,-0.5575,-0.5576,0,0,0,0,0,0,-0.53,-0.5307,-0.5374,-0.5344,-0.5353,-0.537,-0.5387,-0.539,-0.5401,-0.5421,-0.5424,-0.5406,-0.5441,-0.5448,-0.5482,-0.5498,-0.5471,-0.5473,-0.5573,-0.5574,-0.5576,-0.5587,0,0,0,0,0,0,-0.5297,-0.5307,-0.5321,-0.5344,-0.5354,-0.5403,-0.5388,-0.5391,-0.5406,-0.5405,-0.543,-0.5433,-0.5441,-0.5478,-0.5485,-0.5502,-0.5476,-0.5571,-0.5573,-0.5575,-0.5585,-0.5589,-0.5592,0,0,0,0,0,-0.5294,-0.5323,-0.5322,-0.533,-0.5372,-0.5404,-0.5409,-0.5417,-0.5407,-0.5422,-0.5434,-0.5433,-0.5495,-0.5481,-0.5489,-0.5507,-0.557,-0.5573,-0.5575,-0.5584,-0.5588,-0.5592,0,0,0,0,0,0,-0.5301,-0.5326,-0.5325,-0.5362,-0.5381,-0.5403,-0.5422,-0.5422,-0.5444,-0.5442,-0.5451,-0.5457,-0.5491,-0.5503,-0.5486,-0.5544,-0.5532,-0.5536,-0.5535,-0.554,-0.5543,-0.5539,-0.5478,0,0,0,0,0,-0.5307,-0.5331,-0.5351,-0.5382,-0.5391,-0.5405,-0.5419,-0.5423,-0.5443,-0.5451,-0.5466,-0.5486,-0.551,-0.5525,-0.5549,-0.5587,-0.5592,-0.5603,-0.5607,-0.5609,-0.5613,-0.5633,-0.5638,-0.5585,-0.5585,-0.5585,0,0,-0.532,-0.5336,-0.535,-0.5384,-0.5399,-0.5423,-0.5412,-0.5438,-0.5456,-0.5455,-0.5488,-0.55,-0.5522,-0.5558,-0.5575,-0.5569,-0.5629,-0.5612,-0.5614,-0.5617,-0.5636,-0.5641,-0.5646,-0.5586,-0.5586,-0.5586,0,0,-0.5355,-0.537,-0.5397,-0.5412,-0.5434,-0.5443,-0.5449,-0.5472,-0.5479,-0.5512,-0.5512,-0.5534,-0.5575,-0.5591,-0.5605,-0.5645,-0.5644,-0.5652,-0.5669,-0.5689,-0.5694,-0.5697,-0.5711,-0.5716,-0.5656,-0.5656,-0.5656,0,-0.5368,-0.5404,-0.5411,-0.5437,-0.5451,-0.5451,-0.5479,-0.5493,-0.5522,-0.5532,-0.5525,-0.5576,-0.5592,-0.5631,-0.5641,-0.5652,-0.5659,-0.5649,-0.5692,-0.5696,-0.57,-0.5713,-0.5718,-0.5656,-0.5656,-0.5656,-0.5656,0,-0.5418,-0.5443,-0.5462,-0.549,-0.5506,-0.5533,-0.5544,-0.556,-0.5563,-0.5572,-0.5606,-0.5624,-0.565,-0.566,-0.5663,-0.57,-0.5695,-0.569,-0.5678,-0.5706,-0.5718,-0.5723,-0.5658,-0.5657,-0.5657,-0.5657,0,0,-0.546,-0.549,-0.5497,-0.5509,-0.5533,-0.5553,-0.5579,-0.5605,-0.5618,-0.5638,-0.566,-0.5695,-0.569,-0.5705,-0.571,-0.5727,-0.5757,-0.572,-0.5721,-0.5726,-0.5798,-0.5802,-0.5808,-0.5757,-0.5758,-0.5759,-0.5796,0,-0.5497,-0.5543,-0.555,-0.5591,-0.5614,-0.5614,-0.5637,-0.5654,-0.5664,-0.5685,-0.5696,-0.572,-0.5712,-0.5721,-0.5738,-0.575,-0.5772,-0.5747,-0.5778,-0.5779,-0.5772,-0.5814,-0.5818,-0.5853,-0.5801,-0.5802,-0.5803,0,-0.5547,-0.5567,-0.561,-0.5631,-0.5641,-0.5661,-0.5685,-0.5705,-0.5724,-0.573,-0.5746,-0.5749,-0.5776,-0.5762,-0.58,-0.5783,-0.5796,-0.5804,-0.5805,-0.5808,-0.5792,-0.5818,-0.5864,-0.5869,-0.5811,-0.581,-0.5809,0,-0.5572,-0.5611,-0.5641,-0.5651,-0.5676,-0.5691,-0.5702,-0.572,-0.5735,-0.5756,-0.5765,-0.5789,-0.5802,-0.582,-0.5829,-0.5818,-0.5866,-0.5853,-0.5871,-0.5871,-0.5881,-0.588,-0.593,-0.589,-0.589,-0.589,-0.589,0,-0.5613,-0.5639,-0.5653,-0.5671,-0.57,-0.5708,-0.5737,-0.5748,-0.5764,-0.5785,-0.5787,-0.5806,-0.5817,-0.5838,-0.5845,-0.5875,-0.5881,-0.5886,-0.5888,-0.5886,-0.5885,-0.5894,-0.5892,-0.5891,-0.5891,-0.5891,-0.589,0,-0.5646,-0.5656,-0.5689,-0.571,-0.5716,-0.5736,-0.5754,-0.5772,-0.5781,-0.5807,-0.5814,-0.5828,-0.5853,-0.5864,-0.5895,-0.59,-0.5933,-0.5934,-0.5927,-0.5927,-0.5945,-0.5943,-0.6001,-0.6009,-0.5964,-0.5965,-0.5965,0,-0.5671,-0.5691,-0.5714,-0.5727,-0.5739,-0.5761,-0.5776,-0.5784,-0.5799,-0.5822,-0.5838,-0.5862,-0.5883,-0.5922,-0.5936,-0.5959,-0.596,-0.5979,-0.5963,-0.596,-0.5959,-0.5958,-0.596,-0.5981,-0.5982,-0.5982,-0.5982,0,-0.5715,-0.5718,-0.5739,-0.5762,-0.5779,-0.5797,-0.5815,-0.5826,-0.5837,-0.5854,-0.5879,-0.5895,-0.5926,-0.595,-0.5974,-0.5986,-0.5986,-0.5987,-0.5992,-0.5991,-0.5986,-0.5988,-0.5934,-0.5986,-0.5985,-0.5985,-0.5985,-0.5985,-0.5744,-0.5762,-0.578,-0.5803,-0.5817,-0.5833,-0.5851,-0.5862,-0.5883,-0.5908,-0.5912,-0.5939,-0.5958,-0.599,-0.6002,-0.6023,-0.6019,-0.6027,-0.6029,-0.603,-0.6031,-0.5982,-0.6028,-0.6028,-0.6028,-0.6028,-0.6028,0,-0.5787,-0.5799,-0.582,-0.5844,-0.5862,-0.586,-0.5879,-0.5895,-0.5918,-0.5935,-0.5955,-0.5983,-0.6007,-0.6022,-0.6046,-0.606,-0.606,-0.6066,-0.6064,-0.6067,-0.6034,-0.6027,-0.6065,-0.6065,-0.6065,-0.6065,-0.6065,-0.6065,-0.5812,-0.5841,-0.5847,-0.5883,-0.5894,-0.592,-0.5931,-0.5946,-0.596,-0.5991,-0.6011,-0.602,-0.6037,-0.6061,-0.6083,-0.6087,-0.6095,-0.6101,-0.6104,-0.6073,-0.6069,-0.6066,-0.6059,-0.6102,-0.6103,-0.6135,-0.6135,-0.6135]}]]